Change the Weather History Date:

Tuesday, June 25, 2013

  Actual Average Record
Temperature  
Mean Temperature 82 °F 74 °F  
Max Temperature 91 °F 82 °F 99 °F (1952)
Min Temperature 73 °F 66 °F 50 °F (1873)
Degree Days  
Heating Degree Days 0 0  
Month to date heating degree days 9 17  
Since 1 June heating degree days 9 17  
Since 1 July heating degree days 4637 4748  
Cooling Degree Days 17 9  
Month to date cooling degree days 174 163  
Year to date cooling degree days 253 232  
Since 1 June cooling degree days 174 163  
Growing Degree Days 32 (Base 50)    
Moisture  
Dew Point 66 °F    
Average Humidity 59    
Maximum Humidity 73    
Minimum Humidity 44    
Precipitation  
Precipitation T in 0.14 in 1.28 in (1948)
Month to date precipitation 9.81 3.78  
Year to date precipitation 29.03 23.57  
Snow  
Snow 0.00 in 0.00 in 0.00 in (2002)
Month to date snowfall 0.0 0.0  
Since 1 July snowfall 26.1 25.8  
Snow Depth 0.00 in    
Sea Level Pressure  
Sea Level Pressure 29.90 in    
Wind  
Wind Speed 3 mph (WSW)    
Max Wind Speed 14 mph    
Max Gust Speed 28 mph    
Visibility 8 miles    
Events      
T = Trace of Precipitation, MM = Missing Value Source: NWS Daily Summary

Daily Weather History Graph

Daily Weather History Graph

Search for Another Location

Airport or City:

Trip Planner

Search our weather history database for the weather conditions in past years. The results will help you decide how hot, cold, wet, or windy it might be!

Date:

Astronomy

Jun. 25, 2013 Rise Set
Actual Time 5:25 AM EDT 8:31 PM EDT
Civil Twilight 4:52 AM EDT 9:04 PM EDT
Nautical Twilight 4:09 AM EDT 9:47 PM EDT
Astronomical Twilight 3:19 AM EDT 10:37 PM EDT
Moon 10:13 PM EDT (6/25) 8:03 AM EDT (6/25)
Length of Visible Light 16h 12m
Length of Day
15h 05m
Waning Gibbous, 93% of the Moon is Illuminated
Jun 25
Waning Gibbous
Jun 30
Last Quarter
Jul 8
New
Jul 15
First Quarter
Jul 22
Full

Hourly Weather History & Observations

Time (EDT) Temp. Heat Index Dew Point Humidity Pressure Visibility Wind Dir Wind Speed Gust Speed Precip Events Conditions
12:51 AM 77.0 °F - 62.1 °F 60% 29.99 in 10.0 mi Variable 3.5 mph - N/A   Clear
1:51 AM 77.0 °F - 62.1 °F 60% 29.98 in 10.0 mi Variable 3.5 mph - N/A   Clear
2:51 AM 77.0 °F - 63.0 °F 62% 29.96 in 10.0 mi Calm Calm - N/A   Clear
3:51 AM 75.0 °F - 64.0 °F 69% 29.96 in 10.0 mi Calm Calm - N/A   Clear
4:51 AM 73.9 °F - 64.0 °F 71% 29.95 in 9.0 mi WSW 3.5 mph - N/A   Clear
5:51 AM 73.0 °F - 64.0 °F 73% 29.96 in 8.0 mi Calm Calm - N/A   Clear
6:51 AM 73.9 °F - 64.9 °F 73% 29.96 in 8.0 mi WSW 4.6 mph - N/A   Clear
7:51 AM 75.0 °F - 64.9 °F 71% 29.96 in 7.0 mi Calm Calm - N/A   Clear
8:51 AM 78.1 °F - 66.0 °F 66% 29.95 in 7.0 mi Calm Calm - N/A   Clear
9:51 AM 80.1 °F 82.1 °F 66.0 °F 62% 29.94 in 7.0 mi SW 5.8 mph - N/A   Clear
10:51 AM 82.9 °F 85.8 °F 68.0 °F 60% 29.94 in 7.0 mi Calm Calm - N/A   Clear
11:51 AM 88.0 °F 92.1 °F 69.1 °F 53% 29.94 in 7.0 mi Calm Calm - N/A   Clear
12:51 PM 90.0 °F 95.4 °F 70.0 °F 52% 29.91 in 7.0 mi North - - N/A   Clear
1:51 PM 89.1 °F 91.0 °F 64.9 °F 45% 29.88 in 8.0 mi Variable 5.8 mph - N/A   Partly Cloudy
2:51 PM 89.1 °F 91.3 °F 66.0 °F 46% 29.87 in 8.0 mi WSW 10.4 mph 20.7 mph N/A   Scattered Clouds
3:51 PM 89.1 °F 91.0 °F 64.9 °F 45% 29.84 in 8.0 mi Variable 5.8 mph - N/A   Partly Cloudy
4:51 PM 87.1 °F 88.9 °F 64.9 °F 48% 29.84 in 8.0 mi West 9.2 mph - N/A   Overcast
5:51 PM 82.0 °F 84.5 °F 66.9 °F 60% 29.83 in 7.0 mi North - - N/A   Clear
6:51 PM 84.0 °F 87.0 °F 68.0 °F 58% 29.82 in 7.0 mi Variable 5.8 mph 17.3 mph N/A   Clear
7:51 PM 82.9 °F 85.4 °F 66.9 °F 58% 29.81 in 8.0 mi Variable 3.5 mph 20.7 mph N/A   Clear
8:51 PM 82.0 °F 83.8 °F 64.9 °F 56% 29.82 in 10.0 mi Variable 4.6 mph - N/A   Clear
9:51 PM 82.0 °F 83.8 °F 64.9 °F 56% 29.83 in 10.0 mi Variable 4.6 mph - N/A   Clear
10:51 PM 82.0 °F 83.8 °F 64.9 °F 56% 29.84 in 10.0 mi West 6.9 mph - N/A   Clear
11:51 PM 80.1 °F 82.3 °F 66.9 °F 64% 29.83 in 9.0 mi Calm Calm - N/A   Clear